Volver al catálogo

STARLINK-3085

ActivoComunicacionesVLEO
NORAD 49156·PAYLOAD·🇺🇸 United States

Lanzado Sep 14, 2021 desde Vandenberg Space Force Base

Loading…

Próximos Pases (próximas 24 horas)

TLE

ActualizadoSource: CelesTrak SupGP

Época: Sep 15, 2026, 01:37 UTC

1 49156C 21082AC  26258.06784722  .00065262  00000+0  54657-2 0  2584
2 49156  69.9999 136.9574 0002613 269.2732  57.7502 14.98323730    13

Sigue STARLINK-3085 en tiempo real con AllMySat

Download on the App Store